sat.trackr.live / text

‹ back to catalog

XMM-NEWTON

NORAD 25989 · 1999-066A

PAYLOAD ACTIVE UNKNOWN

§ Identity

Operator
Country
ESA
Launch date
1999-12-10
Launch site
FRGUI
Launch vehicle
Mass (kg)
RCS (m²)
10.02

Purposes: science

External: N2YO · Heavens-Above · Gunter

§ Orbital elements

Epoch: 2026-09-10T02:54:33.855552Z

Period
2,872.74 min
Inclination
64.0369°
Eccentricity
0.4650040
Mean motion
0.50126421 rev/d
Perigee alt
29,434.9 km
Apogee alt
91,690.4 km
Semi-major
66,940.8 km
B*
0.0000e+0
RAAN
281.8863°
Arg perigee
63.4079°
Mean anomaly
0.1245°
Rev number
2,343

§ Raw data

XMM-NEWTON1 25989U 99066A   26253.12122518  .00000060  00000+0  00000+0 0  99972 25989  64.0369 281.8863 4650040  63.4079   0.1245  0.50126421 23432

JSON: /api/v1/satellites/25989 · /tle

For live sub-satellite position, see the globe view (requires WebGL).

§ Visibility from observer

Set your observer location to see the next 7 days of passes ≥ 10°. The values pass through the URL so the page stays shareable.

No JS? Fill the form by hand. The geolocation button needs JavaScript.